Location: Archemont
(49.1579°N, 1.7598°E)
Time: 13:11:01
(UTC+00:00)

S-56A Canister/Altair - Pass Details

Date: 17 April 2024
Orbit: 638 x 2488 km, 38.9° (Epoch: 22 May)

Event Time Altitude Azimuth Distance (km) Brightness Sun altitude
Rises 20:34:13 0° 261° (W) 3,923 11.8 -15.9°
Reaches altitude 10° 20:36:43 10° 254° (WSW) 3,176 11.1 -16.2°
Maximum altitude 20:44:17 43° 186° (S) 2,117 9.5 -17.2°
Enters shadow 20:50:40 24° 132° (SE) 3,310 10.1 -17.9°
Drops below altitude 10° 20:55:14 10° 121° (ESE) 4,565 - -18.5°
Sets 20:59:35 0° 116° (ESE) 5,795 - -19.0°
